Weather History for Blythe, CA

Change the Weather History Date:

Tuesday, July 30, 2013

  Actual Average Record
Temperature  
Mean Temperature 94 °F -  
Max Temperature 108 °F 106 °F 117 °F (1995)
Min Temperature 81 °F 80 °F 74 °F (1993)
Cooling Degree Days 30    
Growing Degree Days 44 (Base 50)    
Moisture  
Dew Point 56 °F    
Average Humidity 27    
Maximum Humidity 42    
Minimum Humidity 19    
Precipitation  
Precipitation 0.00 in - - ()
Sea Level Pressure  
Sea Level Pressure 29.89 in    
Wind  
Wind Speed 8 mph (South)    
Max Wind Speed 16 mph    
Max Gust Speed 23 mph    
Visibility 10 miles    
Events      
Averages and records for this station are not official NWS values.
T = Trace of Precipitation, MM = Missing Value Source: NWS Daily Summary

Daily Weather History Graph

Daily Weather History Graph

Search for Another Location

Airport:

Trip Planner

Search our weather history database for the weather conditions in past years. The results will help you decide how hot, cold, wet, or windy it might be!

Date:

Astronomy

Jul. 30, 2013 Rise Set
Actual Time 5:49 AM PDT 7:40 PM PDT
Civil Twilight 5:22 AM PDT 8:07 PM PDT
Nautical Twilight 4:49 AM PDT 8:40 PM PDT
Astronomical Twilight 4:14 AM PDT 9:15 PM PDT
Moon 12:07 AM PDT (7/30) 2:05 PM PDT (7/30)
Length of Visible Light 14h 45m
Length of Day
13h 50m
Last Quarter, 40% of the Moon is Illuminated
Jul 30
Last Quarter
Aug 6
New
Aug 14
First Quarter
Aug 20
Full
Aug 28
Last Quarter

Hourly Weather History & Observations

Time (PDT) Temp. Heat Index Dew Point Humidity Pressure Visibility Wind Dir Wind Speed Gust Speed Precip Events Conditions
12:52 AM 90.0 °F 88.6 °F 57.0 °F 33% 29.87 in 10.0 mi South 6.9 mph - N/A   Clear
1:52 AM 90.0 °F 88.6 °F 57.0 °F 33% 29.88 in 10.0 mi SSW 10.4 mph - N/A   Clear
2:52 AM 88.0 °F 86.1 °F 55.0 °F 32% 29.88 in 10.0 mi SSW 5.8 mph - N/A   Clear
3:52 AM 87.1 °F 85.3 °F 55.0 °F 33% 29.88 in 10.0 mi SW 4.6 mph - N/A   Clear
4:52 AM 82.9 °F 82.1 °F 55.9 °F 39% 29.90 in 10.0 mi Calm Calm - N/A   Clear
5:52 AM 81.0 °F 80.8 °F 55.9 °F 42% 29.91 in 10.0 mi ENE 3.5 mph - N/A   Clear
6:52 AM 84.0 °F 83.3 °F 57.0 °F 40% 29.93 in 10.0 mi NE 3.5 mph - N/A   Clear
7:52 AM 90.0 °F 88.1 °F 55.9 °F 31% 29.95 in 10.0 mi Calm Calm - N/A   Clear
8:52 AM 93.9 °F 92.2 °F 55.9 °F 28% 29.96 in 10.0 mi ESE 6.9 mph - N/A   Clear
9:52 AM 97.0 °F 96.1 °F 57.9 °F 27% 29.96 in 10.0 mi Variable 5.8 mph - N/A   Clear
10:52 AM 100.0 °F 98.3 °F 55.0 °F 22% 29.96 in 10.0 mi SSE 9.2 mph - N/A   Clear
11:52 AM 100.9 °F 100.5 °F 57.9 °F 24% 29.94 in 10.0 mi South 11.5 mph 16.1 mph N/A   Clear
12:52 PM 105.1 °F 104.4 °F 57.0 °F 20% 29.92 in 10.0 mi South 16.1 mph 23.0 mph N/A   Clear
1:52 PM 105.1 °F 105.0 °F 57.9 °F 21% 29.90 in 10.0 mi South 13.8 mph 20.7 mph N/A   Clear
2:52 PM 106.0 °F 106.4 °F 57.9 °F 21% 29.88 in 10.0 mi South 10.4 mph 20.7 mph N/A   Clear
3:52 PM 108.0 °F 108.0 °F 57.0 °F 19% 29.86 in 10.0 mi South 15.0 mph 21.9 mph N/A   Clear
4:52 PM 108.0 °F 108.0 °F 57.0 °F 19% 29.84 in 10.0 mi South 13.8 mph - N/A   Clear
5:52 PM 107.1 °F 106.7 °F 55.9 °F 19% 29.83 in 10.0 mi South 15.0 mph - N/A   Clear
6:52 PM 105.1 °F 104.4 °F 55.9 °F 20% 29.83 in 10.0 mi South 15.0 mph - N/A   Clear
7:52 PM 100.9 °F 99.6 °F 55.0 °F 22% 29.84 in 10.0 mi South 12.7 mph - N/A   Clear
8:52 PM 98.1 °F 96.4 °F 55.0 °F 24% 29.86 in 10.0 mi South 11.5 mph - N/A   Clear
9:52 PM 97.0 °F 95.0 °F 55.0 °F 24% 29.88 in 10.0 mi SSW 8.1 mph - N/A   Clear
10:52 PM 95.0 °F 92.7 °F 54.0 °F 25% 29.89 in 10.0 mi SSW 9.2 mph - N/A   Clear